Location: Peebles
(55.6412°N, 3.1714°W)
Time: 08:43:46
(UTC+01:00)

COSMOS 1275 DEB - Visible Passes

Search period start: 26 June 2022 00:00
Search period end: 06 July 2022 00:00
Orbit: 953 x 1009 km, 83.0° (Epoch: 21 June)

Date Brightness Start Highest point End Pass type
(mag) Time Alt. Az. Time Alt. Az. Time Alt. Az.
26 Jun ? 01:20:31 10° SW 01:26:32 42° WNW 01:32:38 10° N visible
26 Jun ? 03:11:30 10° WNW 03:14:04 12° NW 03:16:38 10° NNW visible
27 Jun ? 00:01:25 10° S 00:07:49 80° E 00:14:17 10° NNE visible
27 Jun ? 01:48:40 10° WSW 01:54:04 28° WNW 01:59:31 10° N visible
28 Jun ? 00:28:34 10° SSW 00:34:58 67° WNW 00:41:24 10° N visible
28 Jun ? 02:17:24 10° W 02:21:48 19° NW 02:26:14 10° N visible
28 Jun ? 23:10:33 10° SSE 23:16:39 48° E 23:22:47 10° NNE visible
29 Jun ? 00:56:12 10° SW 01:02:17 43° WNW 01:08:25 10° N visible
29 Jun ? 02:46:56 10° WNW 02:49:44 13° NW 02:52:33 10° NNW visible
29 Jun ? 23:37:13 10° S 23:43:37 76° E 23:50:03 10° NNE visible
30 Jun ? 01:24:19 10° WSW 01:29:48 29° WNW 01:35:20 10° N visible
01 Jul ? 00:04:19 10° SSW 00:10:43 70° WNW 00:17:11 10° N visible
01 Jul ? 01:52:58 10° W 01:57:31 20° NW 02:02:03 10° N visible
01 Jul ? 22:46:24 10° SSE 22:52:28 46° E 22:58:32 10° NNE visible
02 Jul ? 00:31:54 10° SW 00:38:02 45° WNW 00:44:13 10° N visible
02 Jul ? 02:22:25 10° WNW 02:25:25 13° NW 02:28:26 10° NNW visible
02 Jul ? 23:13:01 10° S 23:19:24 73° E 23:25:48 10° NNE visible
03 Jul ? 00:59:58 10° WSW 01:05:32 30° WNW 01:11:07 10° N visible
03 Jul ? 23:40:05 10° SSW 23:46:30 74° WNW 23:52:57 10° N visible
04 Jul ? 01:28:34 10° W 01:33:13 20° NW 01:37:53 10° N visible
05 Jul ? 00:07:37 10° SW 00:13:47 48° WNW 00:19:59 10° N visible
05 Jul ? 01:57:54 10° WNW 02:01:06 14° NW 02:04:19 10° NNW visible
05 Jul ? 22:48:49 10° S 22:55:11 69° E 23:01:34 10° NNE visible
